Location: Blue Mountain Vista Observatory
(40.6992°N, 75.9422°W)
Time: 10:46:26
(UTC-04:00)

Cosmos 1151 - Visible Passes

Search period start: 23 April 2014 00:00
Search period end: 03 May 2014 00:00
Orbit: 334 x 342 km, 82.5° (Epoch: 23 April)

Date Brightness Start Highest point End Pass type
(mag) Time Alt. Az. Time Alt. Az. Time Alt. Az.
29 Apr 5.1 22:43:00 10° N 22:43:22 13° N 22:43:22 13° N visible
30 Apr 5.5 23:03:26 10° NNW 23:03:38 11° NW 23:03:38 11° NW visible
01 May 4.3 21:51:43 10° NNE 21:52:26 14° NE 21:52:26 14° NE visible
02 May 3.8 22:10:54 10° N 22:12:16 25° N 22:12:16 25° N visible
